| time (UTC) | temp F | wind direction | speed knots | gust knots | rain 1hr in | rain 24hr in | rain mn in | humidity % | barometer mb |
| 20260507095947 | 60 | 24 | 5.2 | 7.8 | 0.00 | 0.00 | 0.00 | 81 | 1011.0 |
| 20260507094447 | 60 | 49 | 3.5 | 7.8 | 0.00 | 0.00 | 0.00 | 81 | 1010.0 |
| 20260507092946 | 60 | 53 | 3.5 | 6.1 | 0.00 | 0.00 | 0.00 | 81 | 1011.0 |
| 20260507091446 | 60 | 50 | 3.5 | 6.1 | 0.00 | 0.00 | 0.00 | 81 | 1011.0 |
| 20260507085946 | 59 | 46 | 1.7 | 6.1 | 0.00 | 0.00 | 0.00 | 83 | 1011.0 |
| 20260507084446 | 59 | 80 | 2.6 | 5.2 | 0.00 | 0.00 | 0.00 | 83 | 1011.0 |
| 20260507082946 | 58 | 79 | 0.9 | 1.7 | 0.00 | 0.00 | 0.00 | 86 | 1011.0 |
| 20260507081446 | 57 | 79 | 1.7 | 2.6 | 0.00 | 0.00 | 0.00 | 87 | 1011.0 |
| 20260507075946 | 56 | 79 | 1.7 | 2.6 | 0.00 | 0.00 | 0.00 | 90 | 1011.0 |
| 20260507074446 | 53 | 232 | 0.9 | 1.7 | 0.00 | 0.00 | 0.00 | 92 | 1011.0 |
| 20260507072946 | 53 | 232 | 0.9 | 1.7 | 0.00 | 0.00 | 0.00 | 93 | 1011.0 |
| 20260507071446 | 52 | 232 | 0.9 | 1.7 | 0.00 | 0.00 | 0.00 | 93 | 1012.0 |
| 20260507065946 | 52 | 232 | 0.9 | 1.7 | 0.00 | 0.00 | 0.00 | 93 | 1012.0 |
| 20260507064446 | 52 | 232 | 0.9 | 1.7 | 0.00 | 0.00 | 0.00 | 93 | 1012.0 |
| 20260507062946 | 51 | 154 | 0.9 | 0.9 | 0.00 | 0.00 | 0.00 | 93 | 1012.0 |
| 20260507061446 | 51 | 154 | 0.9 | 0.9 | 0.00 | 0.00 | 0.00 | 93 | 1012.0 |
| 20260507055946 | 51 | 154 | 0.9 | 0.9 | 0.00 | 0.00 | 0.00 | 93 | 1012.0 |
| 20260507054446 | 51 | 154 | 0.9 | 0.9 | 0.00 | 0.00 | 0.00 | 93 | 1012.0 |
| 20260507052946 | 51 | 154 | 0.9 | 0.9 | 0.00 | 0.00 | 0.00 | 93 | 1012.0 |
| 20260507051446 | 51 | 154 | 0.9 | 0.9 | 0.00 | 0.00 | 0.00 | 93 | 1012.0 |
| 20260507045946 | 51 | 154 | 0.9 | 0.9 | 0.00 | 0.00 | 0.00 | 94 | 1012.0 |
| 20260507044446 | 52 | 154 | 0.9 | 0.9 | 0.00 | 0.00 | 0.00 | 92 | 1012.0 |
| 20260507042946 | 51 | 154 | 0.9 | 0.9 | 0.00 | 0.00 | 0.00 | 95 | 1012.0 |
| 20260507041446 | 52 | 154 | 0.9 | 0.9 | 0.00 | 0.00 | 0.00 | 94 | 1012.0 |
| 20260507035946 | 52 | 154 | 0.9 | 0.9 | 0.00 | 0.00 | 0.00 | 95 | 1012.0 |
| 20260507034446 | 52 | 154 | 0.9 | 0.9 | 0.00 | 0.00 | 0.00 | 92 | 1012.0 |
| 20260507032946 | 52 | 154 | 0.9 | 0.9 | 0.00 | 0.00 | 0.00 | 95 | 1012.0 |
| 20260507031446 | 52 | 154 | 0.9 | 0.9 | 0.00 | 0.00 | 0.00 | 94 | 1012.0 |
| 20260507025946 | 52 | 154 | 0.9 | 0.9 | 0.00 | 0.00 | 0.00 | 94 | 1012.0 |
| 20260507024447 | 52 | 154 | 0.9 | 0.9 | 0.00 | 0.00 | 0.00 | 93 | 1012.0 |
| 20260507022946 | 52 | 154 | 0.9 | 0.9 | 0.00 | 0.00 | 0.00 | 93 | 1013.0 |
| 20260507021446 | 53 | 154 | 0.9 | 0.9 | 0.00 | 0.00 | 0.00 | 92 | 1013.0 |
| 20260507015946 | 53 | 154 | 0.9 | 0.9 | 0.00 | 0.00 | 0.00 | 92 | 1013.0 |
| 20260507014446 | 54 | 154 | 0.9 | 0.9 | 0.00 | 0.00 | 0.00 | 90 | 1013.0 |
| 20260507012946 | 54 | 154 | 0.9 | 0.9 | 0.00 | 0.00 | 0.00 | 90 | 1013.0 |
| 20260507011445 | 54 | 154 | 0.9 | 0.9 | 0.00 | 0.00 | 0.00 | 91 | 1013.0 |
| 20260507005946 | 54 | 154 | 0.9 | 0.9 | 0.00 | 0.00 | 0.00 | 91 | 1013.0 |
| 20260507002946 | 54 | 154 | 0.9 | 0.9 | 0.00 | 0.00 | 0.00 | 91 | 1014.0 |
| 20260507001446 | 55 | 154 | 0.9 | 0.9 | 0.00 | 0.00 | 0.00 | 91 | 1014.0 |
| 20260506235946 | 55 | 154 | 0.9 | 0.9 | 0.00 | 0.00 | 0.00 | 91 | 1014.0 |
| 20260506234446 | 55 | 154 | 0.9 | 0.9 | 0.00 | 0.00 | 0.00 | 91 | 1014.0 |
| 20260506232946 | 55 | 154 | 0.9 | 0.9 | 0.00 | 0.00 | 0.00 | 91 | 1014.0 |
| 20260506231446 | 55 | 154 | 0.9 | 0.9 | 0.00 | 0.00 | 0.00 | 92 | 1014.0 |
| 20260506225946 | 55 | 154 | 0.9 | 0.9 | 0.00 | 0.00 | 0.00 | 91 | 1014.0 |
| 20260506224446 | 55 | 154 | 0.9 | 0.9 | 0.00 | 0.00 | 0.00 | 92 | 1014.0 |
| 20260506222946 | 55 | 154 | 1.7 | 1.7 | 0.00 | 0.00 | 0.00 | 92 | 1014.0 |
| 20260506221446 | 55 | 154 | 1.7 | 1.7 | 0.00 | 0.00 | 0.00 | 91 | 1014.0 |
| 20260506215946 | 56 | 154 | 1.7 | 1.7 | 0.00 | 0.00 | 0.00 | 91 | 1014.0 |
| 20260506214445 | 56 | 133 | 0.9 | 0.9 | 0.00 | 0.00 | 0.00 | 89 | 1014.0 |
| 20260506212946 | 56 | 133 | 0.9 | 0.9 | 0.00 | 0.00 | 0.00 | 90 | 1015.0 |
| 20260506211446 | 57 | 133 | 0.9 | 0.9 | 0.00 | 0.00 | 0.00 | 89 | 1014.0 |
| 20260506205946 | 57 | 102 | 0.9 | 0.9 | 0.00 | 0.00 | 0.00 | 86 | 1014.0 |
| 20260506204446 | 57 | 102 | 0.9 | 0.9 | 0.00 | 0.00 | 0.00 | 86 | 1014.0 |
| 20260506202946 | 57 | 102 | 0.9 | 0.9 | 0.00 | 0.00 | 0.00 | 86 | 1014.0 |
| 20260506201446 | 57 | 102 | 0.9 | 0.9 | 0.00 | 0.00 | 0.00 | 86 | 1014.0 |
| 20260506195946 | 57 | 102 | 0.9 | 0.9 | 0.00 | 0.00 | 0.00 | 86 | 1014.0 |
| 20260506194446 | 59 | 109 | 0.9 | 0.9 | 0.00 | 0.00 | 0.00 | 82 | 1014.0 |
| 20260506192946 | 59 | 109 | 0.9 | 1.7 | 0.00 | 0.00 | 0.00 | 80 | 1014.0 |
| 20260506191446 | 59 | 31 | 0.9 | 0.9 | 0.00 | 0.00 | 0.00 | 80 | 1014.0 |
| 20260506185946 | 59 | 31 | 1.7 | 1.7 | 0.00 | 0.00 | 0.00 | 79 | 1014.0 |
| 20260506184450 | 60 | 33 | 0.9 | 2.6 | 0.00 | 0.00 | 0.00 | 79 | 1014.0 |
| 20260506182945 | 60 | 346 | 0.9 | 1.7 | 0.00 | 0.00 | 0.00 | 79 | 1014.0 |
| 20260506181446 | 60 | 345 | 1.7 | 3.5 | 0.00 | 0.00 | 0.00 | 79 | 1014.0 |
| 20260506175946 | 60 | 355 | 0.9 | 3.5 | 0.00 | 0.00 | 0.00 | 79 | 1014.0 |
| 20260506174446 | 61 | 355 | 1.7 | 5.2 | 0.00 | 0.00 | 0.00 | 79 | 1014.0 |
| 20260506172946 | 61 | 355 | 2.6 | 5.2 | 0.00 | 0.00 | 0.00 | 78 | 1014.0 |
| 20260506171445 | 62 | 306 | 1.7 | 4.3 | 0.00 | 0.00 | 0.00 | 77 | 1014.0 |
| 20260506165946 | 62 | 294 | 1.7 | 5.2 | 0.00 | 0.00 | 0.00 | 78 | 1014.0 |
| 20260506164446 | 62 | 19 | 1.7 | 6.1 | 0.00 | 0.00 | 0.00 | 77 | 1014.0 |
| 20260506162946 | 63 | 310 | 0.9 | 4.3 | 0.00 | 0.00 | 0.00 | 74 | 1014.0 |
| 20260506161446 | 63 | 313 | 1.7 | 3.5 | 0.00 | 0.00 | 0.00 | 73 | 1014.0 |
| 20260506154446 | 63 | 313 | 3.5 | 6.1 | 0.00 | 0.00 | 0.00 | 73 | 1014.0 |
| 20260506152946 | 63 | 316 | 2.6 | 5.2 | 0.00 | 0.00 | 0.00 | 73 | 1014.0 |
| 20260506151446 | 62 | 292 | 2.6 | 5.2 | 0.00 | 0.00 | 0.00 | 74 | 1014.0 |
| 20260506145946 | 62 | 327 | 2.6 | 6.1 | 0.00 | 0.00 | 0.00 | 74 | 1014.0 |
| 20260506144449 | 62 | 343 | 3.5 | 7.8 | 0.00 | 0.00 | 0.00 | 75 | 1014.0 |
| 20260506142946 | 62 | 282 | 4.3 | 7.0 | 0.00 | 0.00 | 0.00 | 75 | 1015.0 |
| 20260506141446 | 61 | 351 | 3.5 | 7.8 | 0.00 | 0.00 | 0.00 | 75 | 1015.0 |
| 20260506135946 | 62 | 298 | 3.5 | 7.8 | 0.00 | 0.00 | 0.00 | 75 | 1014.0 |
| 20260506134445 | 61 | 286 | 2.6 | 6.1 | 0.00 | 0.00 | 0.00 | 77 | 1014.0 |
| 20260506132946 | 61 | 298 | 2.6 | 6.1 | 0.00 | 0.00 | 0.00 | 78 | 1015.0 |
| 20260506131445 | 61 | 295 | 1.7 | 6.1 | 0.00 | 0.00 | 0.00 | 77 | 1015.0 |
| 20260506125946 | 61 | 333 | 1.7 | 3.5 | 0.00 | 0.00 | 0.00 | 77 | 1015.0 |
| 20260506124446 | 61 | 333 | 2.6 | 5.2 | 0.00 | 0.00 | 0.00 | 76 | 1015.0 |
| 20260506122946 | 61 | 348 | 1.7 | 6.1 | 0.00 | 0.00 | 0.00 | 75 | 1015.0 |
| 20260506121446 | 62 | 258 | 1.7 | 5.2 | 0.00 | 0.00 | 0.00 | 74 | 1015.0 |
| 20260506115946 | 62 | 292 | 3.5 | 6.1 | 0.00 | 0.00 | 0.00 | 71 | 1015.0 |
| 20260506114446 | 62 | 304 | 1.7 | 5.2 | 0.00 | 0.00 | 0.00 | 72 | 1015.0 |
| 20260506112946 | 61 | 311 | 2.6 | 6.1 | 0.00 | 0.00 | 0.00 | 73 | 1015.0 |
| 20260506111446 | 61 | 297 | 1.7 | 3.5 | 0.00 | 0.00 | 0.00 | 74 | 1015.0 |
| 20260506105946 | 61 | 271 | 1.7 | 3.5 | 0.00 | 0.00 | 0.00 | 73 | 1015.0 |
| 20260506104446 | 61 | 271 | 2.6 | 6.1 | 0.00 | 0.00 | 0.00 | 72 | 1015.0 |
| 20260506102946 | 60 | 261 | 2.6 | 5.2 | 0.00 | 0.00 | 0.00 | 72 | 1015.0 |
| 20260506101446 | 60 | 230 | 1.7 | 4.3 | 0.00 | 0.00 | 0.00 | 73 | 1015.0 |